Volver al catálogo

ONEWEB-0252

ActivoComunicacionesPO
NORAD 48970·PAYLOAD·🇬🇧 United Kingdom

Lanzado Jul 1, 2021 desde Vostochny Cosmodrome

Loading…

Próximos Pases (próximas 24 horas)

TLE

ActualizadoSource: CelesTrak SupGP

Época: Sep 14, 2026, 22:03 UTC

1 48970C 21060D   26257.91891620 -.00002900  00000+0 -75954-2 0  2576
2 48970  87.9155 210.9535 0002102  89.3234 302.6403 13.16602354    14

Sigue ONEWEB-0252 en tiempo real con AllMySat

Download on the App Store